[[{"header":{"parameterUnit":"m.s-1","parameterCategory":1,"la1":30.2991,"la2":30.254,"lo1":-89.0895,"lo2":-89.0444,"dy":0.0017,"dx":0.0017,"nx":28,"ny":28,"refTime":"2025-01-21T03:00:00:Z","depth":0,"parameterNumber":2,"parameterNumberName":"U-component_of_WINDS"},"data":[0,0,0,0,0,0,0,0,0,0,0,0,0,0,0,0,0,0,0,0,0,0,0,0,0,0,0,0,0,0,0,0,0,0,0,0,0,0,0,0,0,0,0,0,0,0,0,0,0,0,0,0,0,0,0,0,0,0,-5.2579,-5.258,0,-5.2666,-5.2667,-5.2667,-5.2558,-5.2553,-5.2549,-5.2546,-5.2634,-5.264,-5.2646,0,0,0,0,0,0,0,0,0,0,0,0,0,-5.2316,-5.2322,-5.2579,-5.258,-5.2581,-5.2665,-5.2667,-5.2668,-5.2558,-5.2553,-5.2548,-5.2544,-5.2632,-5.2639,-5.2646,0,0,0,0,0,0,0,0,0,0,0,0,0,-5.2419,-5.2323,-5.2579,-5.2536,-5.2534,-5.2665,-5.2667,-5.2668,-5.2559,-5.2553,-5.2547,-5.2542,-5.2629,-5.2638,-5.2647,-5.2824,0,0,-5.2675,-5.2679,0,0,0,0,0,0,0,0,-5.2414,-5.2429,-5.2542,-5.254,-5.2537,-5.2595,-5.2606,-5.272,-5.2561,-5.255,-5.2546,-5.2539,-5.2626,-5.2635,-5.2664,-5.2828,-5.2832,-5.2676,-5.2681,-5.2685,-5.2688,0,0,0,0,0,0,0,-5.2407,-5.2425,-5.2613,-5.2543,-5.254,-5.2513,-5.2521,-5.2627,-5.262,-5.255,-5.2542,-5.2554,-5.2623,-5.2656,-5.2665,-5.2833,-5.2676,-5.2684,-5.2689,-5.2693,-5.3146,-5.3152,0,0,0,0,0,0,-5.2405,-5.242,-5.261,-5.2616,-5.2459,-5.2522,-5.2531,-5.2582,-5.2619,-5.2619,-5.2559,-5.2549,-5.2643,-5.2655,-5.2668,-5.2878,-5.2685,-5.2694,-5.2699,-5.314,-5.3148,-5.3155,0,0,0,0,0,0,-5.24,-5.2423,-5.2607,-5.2516,-5.2537,-5.2533,-5.2591,-5.2587,-5.2619,-5.2626,-5.2624,-5.2594,-5.2639,-5.2655,-5.2786,-5.2879,-5.2698,-5.2706,-5.3132,-5.3142,-5.3151,-5.3299,0,0,0,0,0,0,-5.2392,-5.2422,-5.2489,-5.2518,-5.2542,-5.2725,-5.2597,-5.2593,-5.2636,-5.2623,-5.2658,-5.2658,-5.2635,-5.2773,-5.2795,-5.2889,-5.2713,-5.3124,-5.3136,-5.3148,-5.3286,-5.3313,-5.3336,0,0,0,0,0,-5.2383,-5.2527,-5.2493,-5.2517,-5.2627,-5.273,-5.2744,-5.2715,-5.2643,-5.2711,-5.2715,-5.2657,-5.2865,-5.2787,-5.2811,-5.2909,-5.3118,-5.3133,-5.3147,-5.3275,-5.3307,-5.3335,0,0,0,0,0,0,-5.251,-5.253,-5.2493,-5.265,-5.269,-5.2711,-5.2796,-5.2751,-5.2811,-5.2796,-5.2758,-5.2766,-5.2906,-5.292,-5.2833,-5.3082,-5.2979,-5.3,-5.3068,-5.3099,-5.3124,-5.3118,-5.2721,0,0,0,0,0,-5.2556,-5.2639,-5.2652,-5.2789,-5.2811,-5.2801,-5.2844,-5.2819,-5.2857,-5.2873,-5.2887,-5.2926,-5.3,-5.305,-5.3119,-5.3286,-5.3292,-5.3365,-5.339,-5.341,-5.3429,-5.3519,-5.3551,-5.3203,-5.3203,-5.3203,0,0,-5.2652,-5.2674,-5.2728,-5.2815,-5.2843,-5.2929,-5.2815,-5.2911,-5.2974,-5.2888,-5.3013,-5.3024,-5.3065,-5.3215,-5.3282,-5.3231,-5.3526,-5.3429,-5.3446,-5.3453,-5.3537,-5.357,-5.36,-5.3213,-5.3211,-5.321,0,0,-5.2872,-5.2897,-5.3014,-5.3044,-5.3086,-5.3078,-5.3106,-5.3135,-5.3139,-5.3264,-5.3201,-5.3275,-5.3403,-5.3436,-5.3469,-5.37,-5.3648,-5.3723,-5.3854,-5.3942,-5.3969,-5.3993,-5.4076,-5.4107,-5.3741,-5.3741,-5.3741,0,-5.2987,-5.3115,-5.308,-5.3181,-5.3221,-5.3146,-5.3265,-5.3295,-5.3358,-5.3387,-5.3328,-5.3488,-5.351,-5.3667,-5.3724,-5.3753,-5.3784,-5.372,-5.3968,-5.3992,-5.4014,-5.4093,-5.4124,-5.375,-5.3749,-5.3748,-5.3747,0,-5.3254,-5.3343,-5.3433,-5.3496,-5.3546,-5.3655,-5.3637,-5.3691,-5.366,-5.3658,-5.3786,-5.381,-5.3882,-5.3917,-5.3888,-5.407,-5.4037,-5.3974,-5.3871,-5.4057,-5.413,-5.416,-5.3763,-5.3759,-5.3757,-5.3755,0,0,-5.3558,-5.36,-5.3634,-5.3661,-5.3702,-5.377,-5.3875,-5.3946,-5.3994,-5.4039,-5.4126,-5.4236,-5.4178,-5.4216,-5.4189,-5.4266,-5.4449,-5.4194,-5.4194,-5.4242,-5.4651,-5.4699,-5.4735,-5.4414,-5.4419,-5.4424,-5.4648,0,-5.3779,-5.3963,-5.3934,-5.4111,-5.4193,-5.4122,-5.4213,-5.4248,-5.4248,-5.4317,-5.4317,-5.4396,-5.4313,-5.4335,-5.4408,-5.4411,-5.453,-5.4394,-5.4495,-5.4499,-5.4489,-5.4773,-5.4825,-5.5035,-5.4676,-5.4681,-5.4684,0,-5.4063,-5.4119,-5.4304,-5.4332,-5.4365,-5.4448,-5.451,-5.4577,-5.4614,-5.4609,-5.4651,-5.461,-5.4714,-5.4608,-5.4751,-5.4659,-5.4698,-5.4705,-5.4713,-5.4722,-5.4605,-5.4792,-5.5101,-5.5134,-5.4729,-5.4725,-5.4722,0,-5.4268,-5.4389,-5.4516,-5.4541,-5.4576,-5.4636,-5.4653,-5.4685,-5.4729,-5.4783,-5.4811,-5.4876,-5.4912,-5.4963,-5.4941,-5.4865,-5.5088,-5.498,-5.5087,-5.5088,-5.5139,-5.5137,-5.5461,-5.5162,-5.5161,-5.5161,-5.516,0,-5.4519,-5.4636,-5.4609,-5.4687,-5.4815,-5.478,-5.4907,-5.4915,-5.4944,-5.5021,-5.4963,-5.5037,-5.5002,-5.5074,-5.5056,-5.5178,-5.5194,-5.5193,-5.5187,-5.5199,-5.52,-5.5226,-5.5211,-5.5169,-5.5167,-5.5166,-5.5164,0,-5.4771,-5.4758,-5.4891,-5.4913,-5.4921,-5.5014,-5.5032,-5.5105,-5.51,-5.5199,-5.5221,-5.5213,-5.5294,-5.5276,-5.5365,-5.5353,-5.5506,-5.5481,-5.5494,-5.5489,-5.5597,-5.5588,-5.5951,-5.5997,-5.5667,-5.567,-5.5673,0,-5.4934,-5.5021,-5.5053,-5.5101,-5.5123,-5.5201,-5.5246,-5.5214,-5.5263,-5.5311,-5.5378,-5.5454,-5.5513,-5.5646,-5.5648,-5.5715,-5.5692,-5.5815,-5.5702,-5.5711,-5.5696,-5.5691,-5.57,-5.5838,-5.5842,-5.5845,-5.5847,0,-5.5223,-5.5212,-5.5279,-5.5344,-5.5399,-5.5449,-5.5493,-5.5535,-5.5506,-5.5564,-5.5647,-5.5693,-5.5783,-5.5859,-5.5921,-5.5937,-5.5889,-5.5882,-5.5911,-5.5925,-5.593,-5.593,-5.5557,-5.5875,-5.5872,-5.587,-5.5868,-5.5867,-5.5436,-5.5511,-5.5545,-5.5621,-5.5651,-5.5693,-5.5762,-5.5766,-5.5834,-5.5906,-5.5882,-5.5976,-5.6009,-5.6088,-5.6112,-5.6184,-5.6138,-5.6179,-5.619,-5.6201,-5.6215,-5.5916,-5.6195,-5.6194,-5.6193,-5.6193,-5.6192,0,-5.5724,-5.5742,-5.5813,-5.5876,-5.5936,-5.5884,-5.5929,-5.5983,-5.6067,-5.6102,-5.6161,-5.6256,-5.6329,-5.6336,-5.6404,-5.6461,-5.644,-5.648,-5.6477,-5.6482,-5.6252,-5.6221,-5.6496,-5.6496,-5.6496,-5.6496,-5.6496,-5.6496,-5.5882,-5.6006,-5.5998,-5.6136,-5.6152,-5.6245,-5.6275,-5.6313,-5.6341,-5.645,-5.651,-5.6514,-5.6538,-5.6608,-5.6672,-5.6672,-5.6701,-5.675,-5.6742,-5.6528,-5.6498,-5.6469,-5.644,-5.6756,-5.6757,-5.6965,-5.6967,-5.6969]},{"header":{"parameterUnit":"m.s-1","parameterCategory":1,"la1":30.2991,"la2":30.254,"lo1":-89.0895,"lo2":-89.0444,"dy":0.0017,"dx":0.0017,"nx":28,"ny":28,"refTime":"2025-01-21T03:00:00:Z","depth":0,"parameterNumber":3,"parameterNumberName":"V-component_of_WINDS"},"data":[0,0,0,0,0,0,0,0,0,0,0,0,0,0,0,0,0,0,0,0,0,0,0,0,0,0,0,0,0,0,0,0,0,0,0,0,0,0,0,0,0,0,0,0,0,0,0,0,0,0,0,0,0,0,0,0,0,0,-8.7901,-8.7902,0,-8.7937,-8.7938,-8.7938,-8.7811,-8.7807,-8.7803,-8.78,-8.7834,-8.7838,-8.7842,0,0,0,0,0,0,0,0,0,0,0,0,0,-8.7719,-8.7723,-8.7901,-8.7902,-8.7902,-8.7937,-8.7938,-8.7938,-8.7812,-8.7807,-8.7802,-8.7798,-8.7832,-8.7837,-8.7843,0,0,0,0,0,0,0,0,0,0,0,0,0,-8.7781,-8.7725,-8.7901,-8.7843,-8.7839,-8.7937,-8.7938,-8.7938,-8.7813,-8.7807,-8.7801,-8.7796,-8.783,-8.7837,-8.7844,-8.7998,0,0,-8.7864,-8.7867,0,0,0,0,0,0,0,0,-8.7778,-8.7788,-8.7851,-8.7848,-8.7842,-8.7864,-8.7886,-8.7958,-8.7814,-8.7822,-8.78,-8.7793,-8.7848,-8.7853,-8.7872,-8.8,-8.8001,-8.7864,-8.7868,-8.7871,-8.7873,0,0,0,0,0,0,0,-8.7774,-8.7786,-8.7915,-8.7853,-8.7847,-8.7814,-8.7817,-8.7899,-8.7867,-8.7821,-8.7812,-8.7818,-8.7844,-8.7866,-8.7872,-8.8002,-8.7864,-8.787,-8.7874,-8.7877,-8.8257,-8.8263,0,0,0,0,0,0,-8.7777,-8.7783,-8.7914,-8.7916,-8.7795,-8.7822,-8.7825,-8.7863,-8.7865,-8.786,-8.7823,-8.7812,-8.7857,-8.7864,-8.7873,-8.8053,-8.7871,-8.7877,-8.7881,-8.8251,-8.8258,-8.8265,0,0,0,0,0,0,-8.7774,-8.779,-8.7913,-8.7847,-8.786,-8.7831,-8.7875,-8.7866,-8.7888,-8.7867,-8.786,-8.7851,-8.7853,-8.7863,-8.7968,-8.8052,-8.788,-8.7887,-8.8244,-8.8253,-8.8261,-8.8416,0,0,0,0,0,0,-8.7769,-8.779,-8.785,-8.785,-8.7864,-8.8009,-8.788,-8.7871,-8.79,-8.7886,-8.7891,-8.7887,-8.7849,-8.7959,-8.7975,-8.8059,-8.7892,-8.8236,-8.8248,-8.8259,-8.8403,-8.843,-8.8452,0,0,0,0,0,-8.7763,-8.7891,-8.7853,-8.787,-8.7939,-8.8014,-8.8022,-8.7978,-8.7907,-8.7966,-8.7952,-8.7887,-8.8041,-8.797,-8.7987,-8.8075,-8.823,-8.8244,-8.8258,-8.8393,-8.8424,-8.8451,0,0,0,0,0,0,-8.7901,-8.789,-8.7848,-8.798,-8.7999,-8.7993,-8.8066,-8.8013,-8.8052,-8.8037,-8.7979,-8.7981,-8.8096,-8.8095,-8.8017,-8.8224,-8.8123,-8.8141,-8.822,-8.825,-8.8274,-8.8271,-8.7897,0,0,0,0,0,-8.7947,-8.8011,-8.7997,-8.8115,-8.8127,-8.8095,-8.8127,-8.809,-8.8107,-8.8114,-8.8108,-8.8127,-8.8178,-8.8214,-8.8261,-8.8403,-8.8401,-8.8471,-8.8495,-8.8515,-8.8531,-8.8604,-8.8635,-8.831,-8.831,-8.8309,0,0,-8.8043,-8.8044,-8.8088,-8.8143,-8.8154,-8.8219,-8.8103,-8.8178,-8.8225,-8.8125,-8.8224,-8.822,-8.8236,-8.836,-8.8414,-8.8363,-8.8621,-8.8533,-8.8549,-8.8554,-8.8622,-8.8653,-8.868,-8.8319,-8.8317,-8.8316,0,0,-8.825,-8.8259,-8.8357,-8.837,-8.8387,-8.8365,-8.8389,-8.8391,-8.8384,-8.8483,-8.8409,-8.8464,-8.8555,-8.857,-8.8589,-8.8801,-8.8741,-8.8818,-8.8944,-8.9017,-8.9042,-8.9064,-8.9139,-8.9167,-8.8834,-8.8834,-8.8834,0,-8.8366,-8.8464,-8.8414,-8.8494,-8.852,-8.8433,-8.8531,-8.8546,-8.8578,-8.8597,-8.8539,-8.8652,-8.8657,-8.8782,-8.8833,-8.8852,-8.8876,-8.8817,-8.9043,-8.9065,-8.9085,-8.9155,-8.9184,-8.8843,-8.8842,-8.8841,-8.884,0,-8.8605,-8.8673,-8.8751,-8.8784,-8.8818,-8.8908,-8.887,-8.891,-8.8871,-8.8855,-8.8955,-8.8957,-8.9003,-8.903,-8.8992,-8.915,-8.9117,-8.9053,-8.895,-8.9126,-8.9191,-8.9218,-8.8856,-8.8853,-8.885,-8.8848,0,0,-8.89,-8.8905,-8.8934,-8.8948,-8.8961,-8.9012,-8.9096,-8.9141,-8.9177,-8.9201,-8.9269,-8.9349,-8.9288,-8.931,-8.9273,-8.9337,-8.9503,-8.9264,-8.9263,-8.9307,-8.9676,-8.9724,-8.9756,-8.9464,-8.9469,-8.9473,-8.9674,0,-8.9103,-8.9249,-8.9206,-8.9351,-8.9413,-8.9331,-8.9404,-8.9419,-8.9406,-8.9455,-8.9439,-8.9496,-8.9413,-8.9426,-8.9485,-8.9471,-8.9576,-8.9456,-8.9526,-8.9529,-8.9524,-8.9791,-8.9842,-9.0032,-8.9699,-8.9704,-8.9707,0,-8.936,-8.9395,-8.9547,-8.9548,-8.9573,-8.964,-8.9677,-8.9726,-8.974,-8.9726,-8.975,-8.97,-8.9781,-8.9679,-8.9789,-8.9708,-8.9734,-8.9731,-8.9737,-8.9742,-8.9628,-8.9801,-9.0091,-9.012,-8.9747,-8.9743,-8.974,0,-8.956,-8.9645,-8.9746,-8.9761,-8.9765,-8.9814,-8.9817,-8.9826,-8.9856,-8.9888,-8.9906,-8.9948,-8.997,-9.0003,-8.9964,-8.9894,-9.008,-8.9975,-9.0069,-9.007,-9.0112,-9.011,-9.0409,-9.013,-9.013,-9.0129,-9.0129,0,-8.9791,-8.9887,-8.9836,-8.9899,-9.0003,-8.9952,-9.0057,-9.0051,-9.0059,-9.0118,-9.0049,-9.0106,-9.0051,-9.0103,-9.0073,-9.0168,-9.0179,-9.0169,-9.0159,-9.0175,-9.0176,-9.019,-9.0176,-9.0137,-9.0135,-9.0134,-9.0132,0,-9.0032,-9.0002,-9.0107,-9.0102,-9.0103,-9.018,-9.0175,-9.0232,-9.0213,-9.0288,-9.0303,-9.0274,-9.033,-9.0295,-9.0352,-9.0332,-9.0456,-9.0429,-9.0452,-9.0444,-9.054,-9.0531,-9.0859,-9.0899,-9.0595,-9.0598,-9.0601,0,-9.0181,-9.0253,-9.0256,-9.029,-9.0299,-9.0356,-9.0386,-9.0338,-9.0372,-9.0393,-9.0447,-9.0498,-9.0536,-9.063,-9.0613,-9.0656,-9.0629,-9.0741,-9.0635,-9.0647,-9.0629,-9.0625,-9.0632,-9.0762,-9.0766,-9.0768,-9.0771,0,-9.0449,-9.043,-9.0476,-9.0518,-9.0555,-9.0585,-9.0609,-9.0641,-9.0593,-9.0634,-9.0691,-9.0721,-9.0779,-9.083,-9.0866,-9.0868,-9.0812,-9.0804,-9.0828,-9.0844,-9.0854,-9.0849,-9.0509,-9.0797,-9.0794,-9.0792,-9.0791,-9.079,-9.0647,-9.0707,-9.0718,-9.0771,-9.0784,-9.0808,-9.0861,-9.0849,-9.0896,-9.094,-9.0909,-9.0977,-9.0988,-9.103,-9.104,-9.1091,-9.1045,-9.1081,-9.1089,-9.1099,-9.1112,-9.0847,-9.1098,-9.1097,-9.1096,-9.1095,-9.1095,0,-9.0911,-9.0914,-9.0963,-9.0999,-9.1041,-9.0985,-9.1008,-9.1046,-9.1107,-9.1122,-9.1161,-9.1226,-9.1275,-9.1262,-9.1305,-9.1349,-9.1324,-9.1362,-9.1358,-9.1359,-9.115,-9.1125,-9.1381,-9.1381,-9.1381,-9.1381,-9.1381,-9.1381,-9.1053,-9.115,-9.1133,-9.1236,-9.1237,-9.1304,-9.1322,-9.1343,-9.1355,-9.1431,-9.1471,-9.1462,-9.1466,-9.1509,-9.1551,-9.1545,-9.1564,-9.1611,-9.1597,-9.1402,-9.1374,-9.1347,-9.1322,-9.1616,-9.1616,-9.1801,-9.1803,-9.1804]}]]